Regional Weather Roundup
Issued by NWS Lake Charles, LA

Home | Current Version | Previous Version | Text Only | Print | Product List | Glossary On
Versions: 1 2 3 4 5 6 7 8 9 10 11 12 13 14 15 16 17 18 19 20 21 22 23 24 25 26 27 28 29 30 31 32 33 34 35 36 37 38 39 40 41 42 43 44 45 46 47 48 49
000
ASUS44 KLCH 202310
RWRLCH
RWRLCH
REGIONAL WEATHER ROUNDUP
NATIONAL WEATHER SERVICE LAKE CHARLES LA
500 PM CST SAT DEC 20 2014

Note: "fair" indicates few or no clouds below 12,000 feet with no
significant weather and/or obstructions to visibility.


ACROSS SOUTHEAST TEXAS

CITY           SKY/WX    TMP DP  RH WIND       PRES   REMARKS
BEAUMONT       PTCLDY    57  49  74 N6        30.13R
BEAUMONT CITY    N/A     56  49  77 N3        30.14R
ORANGE         PTCLDY    58  49  72 N6        30.14R
JASPER         MOCLDY    53  45  75 N3        30.18R
$$

ACROSS CENTRAL LOUISIANA

CITY           SKY/WX    TMP DP  RH WIND       PRES   REMARKS
LEESVILLE      PTCLDY    50  44  80 N6        30.16R
FULLERTON        N/A     53  44  71 N3        30.14R
ALEXANDRIA INT MOCLDY    54  44  69 N7        30.14S
ESLER FIELD    PTCLDY    52  44  74 CALM      30.15S
DERIDDER         N/A     53  44  72 N6        30.17S
OAKDALE        MOCLDY    54  46  75 CALM      30.15R
OPELOUSAS        N/A     52  46  80 NE5       30.14S
$$

ACROSS SOUTHWEST AND SOUTH CENTRAL LOUISIANA

CITY           SKY/WX    TMP DP  RH WIND       PRES   REMARKS
SULPHUR        PTCLDY    58  47  67 N6        30.14R
LAKE CHARLES   PTCLDY    56  46  69 NE10      30.13R
CHENNAULT INT  PTCLDY    55  46  71 NE8       30.13S
CAMERON PHI    CLEAR     55  50  82 NE8       30.15R
DEQUINCY         N/A     55  48  78 CALM      30.14S
JENNINGS         N/A     53  47  81 NE6       30.14S
LAFAYETTE      CLOUDY    51  47  86 NE8       30.14S
NEW IBERIA     CLOUDY    51  48  89 N15       30.14R
ABBEVILLE      CLOUDY    49  47  93 N9        30.13F
PATTERSON      CLOUDY    52  46  82 NE12      30.13R
SALT POINT       N/A     54  49  83 VRB6      30.11R
$$

SELECTED SITES ACROSS THE REGION

CITY           SKY/WX    TMP DP  RH WIND       PRES   REMARKS
HOUSTON BUSH   CLOUDY    52  48  86 N7        30.16R
HOUSTON HOBBY  CLOUDY    54  50  86 N7        30.15R
GALVESTON      CLOUDY    54  51  90 N10       30.15R
COLLEGE STAT   CLOUDY    51  47  86 NE6       30.17R
CONROE         CLOUDY    52  45  77 N5        30.17R
HUNTSVILLE     CLOUDY    51  46  83 CALM      30.16F
LUFKIN         CLOUDY    55  44  66 N3        30.16F
SHREVEPORT     CLOUDY    47  42  83 N3        30.20R
MONROE         CLEAR     51  42  71 NE7       30.19S
NATCHEZ MS     CLEAR     54  43  66 N7        30.14F
BATON ROUGE    CLOUDY    50  46  86 NE7       30.15R
N.O. INTL ARPT CLOUDY    52  47  83 NE16      30.12S
SLIDELL        CLOUDY    52  47  83 N9        30.13R
$$

MARINE REPORTS

STATION/POSITION TIME  TEMP    WIND        PRES    VSBY  WAVE
                       AIR SEA DIR/SP/G                  HT/PER
                 (UTC) (F)     (DEG/KT/KT) (MB)    (MI)  (FT/S)
BUOY 30 S HIGH I 2300   55 64   20/ 12/ 14 1020.1R         3/ 5
SEA RIM ST PARK  2300   56     350/  3/  4 1021.1R
PORT ARTHUR      2300      60  340/  3/  5 1020.2F
SABINE PASS N    2300   57 59  350/  3/  4 1020.2S
TEXAS POINT      NOT AVBL
CALCASIEU PASS   2300   56 60   70/  7/ 11   N/A
LK CHARLES BEACH 2300   58                 1020.4R
MARSH ISLAND     NOT AVBL
FRESH WATER LOCK 2300   51 58   10/  8/ 11 1020.0R
AMERADA PASS     2300   51 50   30/  5/ 10 1019.4R
$$



USA.gov is the U.S. government's official web portal to all federal, state and local government web resources and services.